Tracking 29892 objects as of 21-Nov-2024
HD Live streaming from Space Station
objects crossing your sky now

STARLINK-4746

Track STARLINK-4746 now!
10-day predictions
STARLINK-4746 is classified as:


NORAD ID: 53846
Int'l Code: 2022-114AE
Perigee: 545.9 km
Apogee: 547.9 km
Inclination: 53.2 °
Period: 95.4 minutes
Semi major axis: 6917 km
RCS: Unknown
Launch date: September 19, 2022
Source: United States (US)
Launch site: AIR FORCE EASTERN TEST RANGE (AFETR)
Your satellite tracking list
Your tracking list is empty




NASA's NSSDC Master Catalog

Two Line Element Set (TLE):
1 53846U 22114AE  24325.27429014  .00001326  00000-0  10135-3 0  9996
2 53846  53.2164 263.6651 0001460  89.9272 270.1887 15.08844814121354
Source of the keplerian elements: AFSPC